Location: Cisewo
(53.3833°N, 14.9000°E)
Time: 21:00:08
(UTC+00:00)

CSL-04 DEB - Visible Passes

Search period start: 22 January 2022 00:00
Search period end: 01 February 2022 00:00
Orbit: 539 x 597 km, 98.7° (Epoch: 22 January)

Date Brightness Start Highest point End Pass type
(mag) Time Alt. Az. Time Alt. Az. Time Alt. Az.
22 Jan ? 05:40:21 10° E 05:42:53 16° NE 05:45:24 10° NNE visible
23 Jan ? 05:41:36 10° E 05:44:09 17° NE 05:46:41 10° NNE visible
24 Jan ? 05:42:50 10° E 05:45:24 17° NE 05:47:57 10° NNE visible
25 Jan ? 05:44:04 10° E 05:46:39 17° NE 05:49:13 10° NNE visible
26 Jan ? 05:45:18 10° E 05:47:54 17° ENE 05:50:29 10° NNE visible
27 Jan ? 05:46:31 10° E 05:49:09 17° ENE 05:51:45 10° NNE visible
28 Jan ? 05:47:45 10° E 05:50:23 17° ENE 05:53:00 10° NNE visible
29 Jan ? 05:48:58 10° E 05:51:37 18° ENE 05:54:16 10° NNE visible
30 Jan ? 05:50:11 10° E 05:52:51 18° ENE 05:55:31 10° NNE visible
31 Jan ? 05:51:24 10° E 05:54:05 18° ENE 05:56:46 10° NNE visible
